{"data":{"norad_id":60284,"intl_designator":"2024-132G","name":"STARLINK-32123","alt_names":[],"object_type":"PAYLOAD","status":"ACTIVE","operator":null,"country":"US","launch_date":"2024-07-28","launch_site_code":"AFETR","launch_vehicle":null,"mission":null,"orbit_class":"UNKNOWN","rcs_meters":null,"size_class":null,"mass_kg":null,"dimensions":null,"purposes":["comms"],"wikipedia_slug":null,"has_3d_model":false,"image_url":null,"decayed_at":null,"tle_current":{"epoch":"2026-09-21T03:06:39.222432Z","epoch_age_seconds":127400,"freshness":"FRESH","line1":"1 60284U 24132G   26264.12962063 -.00000693  00000+0 -93878-5 0  9990","line2":"2 60284  53.1588 210.4092 0001323  86.2028 273.9125 15.34384867121681","mean_motion":15.34384867,"eccentricity":0.0001323,"inclination_deg":53.1588,"raan_deg":210.4092,"arg_perigee_deg":86.2028,"mean_anomaly_deg":273.9125,"bstar":-9.3878e-6,"rev_number":12168,"period_min":93.848683662754,"perigee_km":461.84316992743,"apogee_km":463.65326815639,"semimajor_km":6840.8852190419,"source":"CELESTRAK","updated_at":"2026-09-22T09:00:49.192314Z"}}}